• In Hungary
  • List of Countries
  • For 7 days
  • Water Temperature
  • Satellite Maps
  • Weather Map
  • News
  • Weather Widgets
  • user-avatar
    Login

    Hourly Weather Dolgushevo

    Today, 25 September, Tuesday

    Time Temperature Precipitation Wind Pressure Humidity
    00:00 +7°C° 1.9 mm 4 mps 732 mmHg 94%
    01:00 +7°C° 1.9 mm 4 mps 732 mmHg 94%
    02:00 +7°C° 1.9 mm 4 mps 731 mmHg 94%
    03:00 +7°C° 1.1 mm 4 mps 732 mmHg 94%
    04:00 +7°C° 1.1 mm 5 mps 732 mmHg 93%
    05:00 +6°C° 1.1 mm 5 mps 732 mmHg 93%
    06:00 +5°C° 0.6 mm 6 mps 733 mmHg 91%
    07:00 +5°C° 0.6 mm 6 mps 734 mmHg 90%
    08:00 +5°C° 0.6 mm 7 mps 734 mmHg 89%
    09:00 +6°C° 0.5 mm 7 mps 735 mmHg 88%
    10:00 +6°C° 0.5 mm 7 mps 736 mmHg 87%
    11:00 +6°C° 0.5 mm 7 mps 737 mmHg 86%
    12:00 +6°C° 0.4 mm 7 mps 738 mmHg 84%
    13:00 +6°C° 0.4 mm 7 mps 739 mmHg 82%
    14:00 +7°C° 0.4 mm 6 mps 740 mmHg 80%
    15:00 +7°C° 0.2 mm 6 mps 741 mmHg 79%
    16:00 +7°C° 0.2 mm 5 mps 742 mmHg 79%
    17:00 +7°C° 0.2 mm 5 mps 742 mmHg 78%
    18:00 +6°C° 0 mm 5 mps 743 mmHg 79%
    19:00 +6°C° 0 mm 5 mps 744 mmHg 79%
    20:00 +5°C° 0 mm 5 mps 745 mmHg 80%
    21:00 +5°C° 0 mm 5 mps 746 mmHg 81%
    22:00 +4°C° 0 mm 4 mps 746 mmHg 83%
    23:00 +4°C° 0 mm 4 mps 747 mmHg 85%

    Tomorrow, 26 September, Wednesday

    Time Temperature Precipitation Wind Pressure Humidity
    00:00 +3°C° 0 mm 4 mps 748 mmHg 85%
    01:00 +3°C° 0 mm 4 mps 748 mmHg 85%
    02:00 +3°C° 0 mm 4 mps 749 mmHg 85%
    03:00 +3°C° 0 mm 4 mps 750 mmHg 85%
    04:00 +1°C° 0 mm 4 mps 750 mmHg 84%
    05:00 +1°C° 0 mm 4 mps 751 mmHg 84%
    06:00 +3°C° 0 mm 4 mps 751 mmHg 79%
    07:00 +3°C° 0 mm 4 mps 752 mmHg 75%
    08:00 +4°C° 0 mm 4 mps 752 mmHg 71%
    09:00 +6°C° 0 mm 4 mps 752 mmHg 67%
    10:00 +7°C° 0 mm 4 mps 752 mmHg 63%
    11:00 +10°C° 0 mm 4 mps 752 mmHg 59%
    12:00 +10°C° 0 mm 4 mps 752 mmHg 59%
    13:00 +11°C° 0 mm 4 mps 751 mmHg 59%
    14:00 +11°C° 0 mm 4 mps 751 mmHg 59%
    15:00 +10°C° 0 mm 4 mps 750 mmHg 61%
    16:00 +8°C° 0 mm 4 mps 750 mmHg 64%
    17:00 +8°C° 0 mm 4 mps 749 mmHg 67%
    18:00 +7°C° 0 mm 4 mps 748 mmHg 66%
    19:00 +7°C° 0 mm 5 mps 748 mmHg 65%
    20:00 +7°C° 0 mm 5 mps 747 mmHg 65%
    21:00 +7°C° 0.8 mm 6 mps 746 mmHg 71%
    22:00 +5°C° 0.8 mm 7 mps 744 mmHg 78%
    23:00 +5°C° 0.8 mm 7 mps 743 mmHg 85%

    Day after tomorrow, 27 September, Thursday

    Time Temperature Precipitation Wind Pressure Humidity
    00:00 +5°C° 2 mm 7 mps 742 mmHg 86%
    01:00 +5°C° 2 mm 7 mps 740 mmHg 87%
    02:00 +5°C° 2 mm 7 mps 739 mmHg 89%
    03:00 +5°C° 1.3 mm 7 mps 738 mmHg 89%
    04:00 +7°C° 1.3 mm 6 mps 738 mmHg 90%
    05:00 +7°C° 1.3 mm 6 mps 737 mmHg 91%
    06:00 +7°C° 0.2 mm 5 mps 737 mmHg 87%
    07:00 +8°C° 0.2 mm 5 mps 738 mmHg 84%
    08:00 +8°C° 0.2 mm 5 mps 738 mmHg 80%
    09:00 +8°C° 0.2 mm 6 mps 738 mmHg 76%
    10:00 +9°C° 0.2 mm 6 mps 738 mmHg 72%
    11:00 +9°C° 0.2 mm 6 mps 738 mmHg 68%
    12:00 +9°C° 0.3 mm 6 mps 739 mmHg 67%
    13:00 +9°C° 0.3 mm 6 mps 739 mmHg 67%
    14:00 +9°C° 0.3 mm 6 mps 739 mmHg 66%
    15:00 +8°C° 0 mm 6 mps 740 mmHg 69%
    16:00 +7°C° 0 mm 5 mps 740 mmHg 71%
    17:00 +7°C° 0 mm 4 mps 741 mmHg 74%
    18:00 +6°C° 0 mm 4 mps 741 mmHg 76%
    19:00 +6°C° 0 mm 4 mps 742 mmHg 77%
    20:00 +5°C° 0 mm 4 mps 742 mmHg 78%
    21:00 +5°C° 0 mm 4 mps 743 mmHg 78%
    22:00 +5°C° 0 mm 4 mps 743 mmHg 79%
    23:00 +5°C° 0 mm 4 mps 743 mmHg 79%

    28 September, Friday

    Time Temperature Precipitation Wind Pressure Humidity
    00:00 +4°C° 0 mm 4 mps 743 mmHg 80%
    01:00 +4°C° 0 mm 4 mps 744 mmHg 82%
    02:00 +4°C° 0 mm 3 mps 744 mmHg 83%
    03:00 +4°C° 0 mm 3 mps 743 mmHg 83%
    04:00 +4°C° 0 mm 3 mps 743 mmHg 82%
    05:00 +4°C° 0 mm 3 mps 742 mmHg 82%
    06:00 +5°C° 0.8 mm 4 mps 741 mmHg 83%
    07:00 +5°C° 0.8 mm 4 mps 740 mmHg 85%
    08:00 +5°C° 0.8 mm 5 mps 738 mmHg 86%
    09:00 +7°C° 1.1 mm 6 mps 737 mmHg 87%
    10:00 +9°C° 1.1 mm 7 mps 736 mmHg 87%
    11:00 +11°C° 1.1 mm 8 mps 735 mmHg 87%
    12:00 +11°C° 1.3 mm 7 mps 735 mmHg 86%
    13:00 +11°C° 1.3 mm 7 mps 735 mmHg 85%
    14:00 +11°C° 1.3 mm 7 mps 734 mmHg 84%
    15:00 +10°C° 0.4 mm 6 mps 735 mmHg 85%
    16:00 +9°C° 0.4 mm 6 mps 736 mmHg 85%
    17:00 +7°C° 0.4 mm 5 mps 737 mmHg 85%
    18:00 +6°C° 0.1 mm 5 mps 738 mmHg 85%
    19:00 +5°C° 0.1 mm 5 mps 740 mmHg 85%
    20:00 +3°C° 0.1 mm 5 mps 741 mmHg 84%
    21:00 +3°C° 0 mm 4 mps 742 mmHg 86%
    22:00 +2°C° 0 mm 3 mps 743 mmHg 87%
    23:00 +2°C° 0 mm 2 mps 744 mmHg 88%

    29 September, Saturday

    Time Temperature Precipitation Wind Pressure Humidity
    00:00 +2°C° 0 mm 2 mps 745 mmHg 89%
    01:00 +1°C° 0 mm 3 mps 746 mmHg 90%
    02:00 0°C° 0 mm 3 mps 747 mmHg 91%
    03:00 +1°C° 0 mm 2 mps 747 mmHg 92%
    04:00 +1°C° 0 mm 2 mps 748 mmHg 94%
    05:00 +1°C° 0 mm 2 mps 748 mmHg 95%
    06:00 +2°C° 0 mm 2 mps 748 mmHg 91%
    07:00 +3°C° 0 mm 2 mps 749 mmHg 88%
    08:00 +4°C° 0 mm 2 mps 749 mmHg 84%
    09:00 +5°C° 0.1 mm 2 mps 750 mmHg 79%
    10:00 +5°C° 0.1 mm 2 mps 750 mmHg 74%
    11:00 +6°C° 0.1 mm 2 mps 751 mmHg 69%
    12:00 +6°C° 0.1 mm 2 mps 751 mmHg 67%
    13:00 +7°C° 0.1 mm 2 mps 751 mmHg 65%
    14:00 +7°C° 0.1 mm 2 mps 752 mmHg 63%
    15:00 +6°C° 0 mm 2 mps 752 mmHg 67%
    16:00 +6°C° 0 mm 1 mps 752 mmHg 71%
    17:00 +5°C° 0 mm 1 mps 753 mmHg 75%
    18:00 +4°C° 0 mm 1 mps 753 mmHg 77%
    19:00 +4°C° 0 mm 1 mps 754 mmHg 79%
    20:00 +3°C° 0 mm 1 mps 754 mmHg 81%
    21:00 +2°C° 0 mm 1 mps 755 mmHg 81%
    22:00 +2°C° 0 mm 1 mps 755 mmHg 81%
    23:00 +1°C° 0 mm 1 mps 755 mmHg 81%

    30 September, Sunday

    Time Temperature Precipitation Wind Pressure Humidity
    00:00 +1°C° 0 mm 1 mps 756 mmHg 81%
    01:00 +1°C° 0 mm 1 mps 756 mmHg 81%
    02:00 0°C° 0 mm 1 mps 756 mmHg 82%
    03:00 0°C° 0 mm 1 mps 756 mmHg 82%
    04:00 0°C° 0 mm 1 mps 757 mmHg 82%
    05:00 0°C° 0 mm 1 mps 757 mmHg 83%
    06:00 +1°C° 0 mm 1 mps 757 mmHg 79%
    07:00 +2°C° 0 mm 2 mps 757 mmHg 75%
    08:00 +3°C° 0 mm 2 mps 757 mmHg 71%
    09:00 +4°C° 0 mm 2 mps 757 mmHg 66%
    10:00 +5°C° 0 mm 3 mps 757 mmHg 62%
    11:00 +7°C° 0 mm 3 mps 757 mmHg 57%
    12:00 +8°C° 0 mm 3 mps 756 mmHg 57%
    13:00 +7°C° 0 mm 4 mps 756 mmHg 56%
    14:00 +8°C° 0 mm 4 mps 755 mmHg 55%
    15:00 +8°C° 0 mm 3 mps 755 mmHg 61%
    16:00 +7°C° 0 mm 3 mps 755 mmHg 67%
    17:00 +5°C° 0 mm 3 mps 755 mmHg 73%
    18:00 +4°C° 0 mm 3 mps 754 mmHg 74%
    19:00 +4°C° 0 mm 3 mps 754 mmHg 75%
    20:00 +3°C° 0 mm 3 mps 754 mmHg 77%
    21:00 +3°C° 0 mm 3 mps 754 mmHg 76%
    22:00 +4°C° 0 mm 4 mps 754 mmHg 75%
    23:00 +4°C° 0 mm 4 mps 753 mmHg 74%
    Show more